Tracking 19199 objects as of 25-Jun-2018
HD Live streaming from Space Station
objects crossing your sky now

FENGYUN 1C DEB

Track FENGYUN 1C DEB now!
10-day predictions


NORAD ID: 30920
Int'l Code: 1999-025AZJ
Perigee: 820.0 km
Apogee: 1,047.9 km
Inclination: 98.9 °
Period: 103.6 minutes
Semi major axis: 7304 km
RCS: 0.0084 m2 (small)
Launch date: May 10, 1999
Source: People's Republic of China (PRC)
Launch site: Taiyaun Space Center, China (TSC)

Note: This is SATELLITE DEBRIS
aabbcc
Your satellite tracking list
Your tracking list is empty




NASA's NSSDC Master Catalog

Two Line Element Set (TLE):
1 30920U 99025AZJ 18175.46167090 +.00000876 +00000-0 +66780-3 0  9995
2 30920 098.8627 002.9240 0155998 063.0185 357.1138 13.90516532570277
Source of the keplerian elements: AFSPC